Wind_Speed
29 22 19 20 20 21 23 23 20 18 18 19 20 20 21 20 19 17 17 17 16 16 16 17 17 17 17 18 18 18 18 18 17 17 16 16 16 16 16 15 15 16 16 16
33 28 23 22 21 20 21 22 23 20 19 21 23 24 24 22 21 19 18 17 17 17 17 18 17 17 18 18 19 19 19 19 18 17 16 17 17 17 17 17 17 17 18 17
33 30 27 27 25 22 22 22 22 22 23 24 27 27 27 24 22 21 20 19 19 18 19 19 17 18 18 19 20 20 20 20 19 19 19 19 19 19 18 18 19 19 19 19
31 30 31 28 25 24 23 22 22 23 26 29 31 30 28 26 23 22 21 21 20 20 20 19 19 20 20 20 20 21 21 21 21 21 20 20 21 21 20 20 20 20 21 21
32 29 28 27 25 23 23 24 25 26 28 29 29 29 28 26 25 24 23 22 22 21 21 21 21 21 22 22 21 22 22 22 23 23 22 22 22 22 21 20 21 21 22 22
33 30 26 25 25 25 25 28 29 30 30 29 28 29 27 26 25 24 24 23 23 23 23 23 23 23 23 23 23 23 23 24 24 24 24 24 23 23 22 22 22 22 23 23
33 31 28 28 26 27 28 30 31 30 30 30 29 29 27 26 25 25 25 24 24 24 24 24 24 24 24 24 24 25 25 25 25 25 25 25 25 24 23 23 23 24 24 25
34 32 30 30 29 31 32 31 31 31 29 29 29 29 28 28 26 26 26 26 26 25 25 25 25 25 25 25 26 26 26 26 26 26 27 26 26 25 25 25 25 26 25 25
34 37 37 35 35 35 34 33 31 31 30 30 30 29 29 29 28 28 27 27 27 27 27 27 26 26 26 26 27 27 27 27 27 27 28 26 26 26 26 26 26 26 26 26
37 39 40 39 38 36 35 34 33 33 32 32 31 30 30 30 30 29 28 28 28 28 28 28 27 27 28 28 29 29 28 28 28 29 28 27 27 27 27 27 27 26 26 26
39 40 41 41 39 37 36 34 33 33 33 33 32 31 31 31 30 29 29 29 29 29 29 29 29 29 29 30 30 30 29 29 29 29 29 28 28 28 28 28 27 27 27 27
42 42 41 41 41 37 36 36 35 34 34 34 33 32 32 31 31 31 31 30 30 30 30 30 30 31 31 31 30 30 30 30 29 29 29 29 29 28 28 28 28 28 28 28
42 41 41 39 39 37 36 37 37 36 35 35 34 33 33 32 32 32 32 32 32 31 31 31 31 31 31 31 30 30 30 30 30 29 29 29 29 29 28 29 29 29 28 29
41 40 39 38 38 37 37 37 36 35 35 35 34 34 34 33 33 33 32 32 32 32 31 31 31 31 30 30 29 29 30 29 29 29 29 29 29 29 29 29 28 28 29 28
38 38 39 38 38 38 37 36 36 35 35 35 34 34 34 33 33 33 32 32 31 31 30 30 30 30 30 30 29 30 30 30 30 29 29 29 29 29 28 28 28 27 27 28
37 37 38 38 38 37 37 36 36 36 35 34 34 34 34 33 32 32 31 31 31 31 31 31 30 30 30 31 31 31 31 30 30 30 29 28 28 27 28 28 27 27 27 27
37 37 37 37 37 37 37 36 36 36 35 34 34 34 34 34 33 32 32 31 31 31 31 30 30 30 30 31 31 31 31 30 29 28 27 27 27 27 27 27 27 27 27 27
36 36 36 37 37 37 37 37 36 36 36 35 35 34 34 34 34 33 32 32 31 31 31 30 30 30 30 30 30 30 29 28 27 27 28 27 27 27 27 27 27 27 27 26
34 35 36 36 36 36 36 35 35 36 35 35 35 34 33 32 32 32 31 31 31 31 30 30 30 30 29 30 30 29 29 28 28 28 27 27 28 27 27 26 26 26 26 27
33 33 34 34 34 34 35 35 35 35 35 35 34 33 33 32 32 32 31 30 30 30 30 30 30 29 29 29 28 27 27 27 27 26 26 27 27 26 26 26 26 26 27 26
30 31 32 32 32 32 32 32 33 34 34 34 33 32 32 31 31 31 30 30 29 29 29 29 29 28 27 27 26 26 26 25 25 26 26 26 26 27 27 26 26 26 26 27
28 28 29 30 30 31 31 31 32 32 32 33 32 32 32 31 31 30 29 29 28 28 28 27 27 26 26 26 26 26 25 25 25 26 25 25 25 25 25 24 25 26 26 27
26 26 26 28 28 29 29 30 30 31 31 31 31 31 31 30 30 29 29 28 27 27 27 26 25 26 26 25 25 24 24 24 24 24 23 23 23 24 24 24 25 26 27 27
23 24 24 25 26 26 27 28 29 29 28 29 29 29 29 29 28 27 27 26 25 26 26 25 25 24 24 23 23 23 22 22 23 22 22 22 22 23 23 24 25 26 26 26
21 22 22 23 24 24 23 23 24 25 26 26 26 27 27 27 26 26 25 25 24 24 24 24 23 22 22 22 22 21 21 21 21 20 21 22 22 22 23 24 24 24 24 25
19 19 19 20 22 22 21 21 22 22 23 24 24 24 24 24 24 24 24 23 22 22 22 21 21 21 21 21 20 20 20 21 21 21 21 22 22 22 22 22 23 24 25 25
17 17 17 18 20 20 20 20 19 20 20 21 22 22 21 21 20 20 20 20 20 19 19 19 19 19 19 19 18 19 19 20 20 20 21 21 21 22 22 23 24 25 26 26
Wind_Direction
216 215 227 246 250 240 229 224 230 237 247 258 267 266 269 278 282 283 284 287 289 293 300 307 310 314 319 321 324 325 325 324 322 318 318 317 314 312 313 310 306 305 304 304
221 216 220 229 236 240 238 231 227 230 241 247 252 256 264 272 278 279 280 283 286 290 296 301 304 308 312 316 319 322 323 323 322 320 317 317 316 312 311 308 303 302 302 302
226 222 224 230 231 232 235 238 234 234 239 247 252 258 264 268 270 273 275 277 282 287 292 297 300 305 308 311 316 319 319 320 320 318 316 317 316 313 310 309 306 303 302 302
227 224 228 231 234 234 234 234 233 234 236 241 249 256 263 266 267 268 271 273 278 283 289 293 298 301 304 307 311 314 316 316 318 316 315 314 313 313 308 305 306 305 303 302
224 225 232 233 231 229 229 229 228 231 237 243 249 255 260 263 264 265 269 271 274 278 284 288 292 296 300 302 306 310 313 314 315 314 313 312 310 310 309 305 303 303 303 303
222 220 223 232 234 230 230 233 231 232 238 242 246 252 258 260 261 263 267 270 272 275 280 284 289 293 296 299 302 306 308 310 311 312 312 310 311 311 311 307 305 304 304 303
221 222 225 225 223 226 228 235 238 240 242 246 250 255 257 259 261 264 267 269 271 273 277 281 286 290 293 296 299 303 305 306 307 310 311 310 309 308 308 308 306 304 304 303
221 220 226 229 226 228 230 235 241 243 245 249 252 253 255 257 260 263 266 269 270 272 275 279 284 288 291 294 297 301 304 305 306 308 309 309 308 305 305 305 305 304 304 304
223 222 224 228 230 233 237 241 244 246 249 251 252 253 255 257 259 261 263 267 268 270 273 276 280 283 287 291 294 299 302 303 304 306 308 307 306 305 304 303 304 303 303 304
222 224 227 229 232 234 238 241 244 247 249 251 252 253 255 257 259 260 262 264 266 269 271 274 277 280 284 288 291 294 297 299 302 304 305 304 303 303 302 303 303 302 302 303
225 230 232 233 235 237 241 244 246 246 248 250 252 252 254 256 258 259 261 263 266 268 270 273 275 279 282 285 288 290 293 296 299 301 302 301 301 301 301 301 302 302 303 304
227 231 235 236 237 240 243 245 246 247 248 249 250 252 253 256 257 259 261 263 266 267 269 271 274 278 280 281 285 289 292 294 296 297 299 300 300 300 300 300 300 301 302 303
232 235 237 238 240 243 244 245 246 247 249 250 251 252 254 256 258 260 261 264 265 267 268 270 272 275 278 281 283 287 291 293 293 294 296 299 300 300 299 300 300 300 301 302
233 236 237 239 240 241 244 245 245 247 248 249 251 252 254 256 258 260 262 264 265 265 267 269 272 274 277 280 282 286 289 290 292 294 294 297 299 299 300 300 301 301 302 302
235 238 239 241 241 242 244 245 245 246 246 249 250 252 254 257 258 260 261 263 264 266 268 270 272 274 277 279 281 284 286 288 290 293 294 295 297 299 300 300 300 301 302 303
237 238 240 241 242 242 244 245 246 246 247 248 250 252 254 257 259 260 261 263 264 266 268 271 273 274 277 279 281 283 284 286 288 290 293 294 295 297 299 300 301 301 302 303
240 240 241 242 242 242 243 244 244 244 245 247 249 251 254 256 258 258 260 263 265 266 268 271 273 274 276 278 280 283 283 284 286 289 291 293 294 295 297 298 301 301 302 303
241 241 241 241 242 243 243 243 243 245 246 247 250 252 254 255 257 259 260 263 265 266 268 270 273 275 277 278 278 280 281 283 286 288 290 293 294 295 296 298 299 299 300 302
240 240 241 242 243 242 242 243 243 244 245 247 249 251 253 254 256 259 261 263 264 266 267 270 273 275 275 278 279 278 279 283 286 289 289 291 293 296 297 298 299 300 301 303
240 241 241 241 240 241 242 242 243 243 244 246 248 251 253 254 256 259 261 263 264 266 268 271 273 275 276 277 277 277 279 283 285 287 289 290 293 295 296 297 298 299 301 302
239 240 240 239 238 239 240 240 241 242 244 245 247 249 251 253 256 259 259 261 263 266 268 270 272 273 273 274 274 276 279 281 284 286 290 291 292 292 294 295 297 299 301 303
238 238 238 236 236 237 238 240 241 242 242 244 246 248 250 252 254 256 258 261 263 265 267 269 270 272 273 272 274 276 279 282 284 286 289 290 291 291 292 295 297 298 301 304
237 236 236 234 235 236 238 240 241 241 242 244 245 247 249 251 253 255 257 259 262 264 266 266 269 272 271 272 275 275 278 281 285 287 288 290 291 292 293 296 298 300 302 304
235 234 234 234 234 236 237 238 240 241 241 243 245 246 248 250 251 253 256 258 261 263 264 266 269 269 270 273 276 276 277 279 283 285 288 289 291 292 293 296 298 300 302 304
233 233 232 232 233 234 234 235 237 239 241 242 244 245 248 250 250 253 255 257 260 261 263 264 263 265 269 272 272 272 274 279 283 286 288 290 291 292 294 297 299 301 304 305
230 230 230 230 230 230 234 236 237 238 240 241 242 244 246 248 249 250 253 256 259 261 261 262 264 264 266 269 270 272 276 280 283 286 288 289 291 293 296 298 301 303 305 306
223 225 227 228 228 230 232 234 236 235 237 239 241 242 244 246 248 250 253 254 254 257 259 262 264 265 266 268 270 273 278 281 283 286 288 291 294 296 297 299 302 304 305 307
Height
5887 5892 5896 5898 5899 5902 5905 5909 5913 5916 5917 5915 5912 5911 5910 5911 5911 5912 5911 5911 5910 5909 5908 5907 5906 5905 5903 5902 5900 5898 5896 5894 5893 5891 5889 5887 5886 5884 5883 5881 5880 5879 5878 5877
5880 5885 5889 5893 5895 5898 5901 5904 5907 5910 5911 5909 5907 5906 5907 5908 5908 5908 5908 5908 5907 5906 5906 5904 5903 5902 5901 5900 5898 5896 5894 5892 5890 5888 5886 5885 5883 5881 5880 5878 5877 5876 5875 5873
5874 5879 5883 5886 5890 5893 5896 5899 5902 5905 5906 5904 5902 5902 5903 5904 5905 5904 5904 5904 5904 5903 5902 5901 5900 5899 5899 5897 5895 5893 5891 5889 5887 5885 5883 5882 5880 5878 5876 5875 5873 5872 5871 5869
5868 5873 5876 5882 5885 5888 5890 5893 5896 5897 5897 5897 5896 5897 5899 5900 5900 5900 5900 5900 5900 5900 5899 5898 5897 5896 5895 5894 5893 5891 5889 5887 5884 5882 5880 5879 5876 5875 5873 5871 5870 5868 5866 5865
5861 5865 5870 5875 5878 5881 5884 5886 5889 5889 5889 5890 5891 5892 5893 5894 5895 5895 5896 5896 5896 5896 5896 5895 5894 5893 5892 5891 5889 5887 5885 5883 5881 5879 5877 5875 5873 5871 5868 5867 5865 5864 5862 5860
5854 5859 5864 5869 5871 5874 5878 5878 5880 5881 5882 5883 5885 5886 5888 5888 5889 5890 5891 5891 5892 5892 5891 5891 5890 5889 5888 5887 5885 5883 5881 5879 5877 5875 5873 5870 5868 5866 5864 5862 5861 5859 5857 5856
5847 5852 5856 5858 5861 5866 5870 5870 5871 5873 5876 5877 5878 5880 5882 5883 5884 5885 5885 5886 5887 5887 5887 5886 5885 5884 5883 5882 5881 5879 5877 5875 5873 5870 5868 5866 5864 5862 5860 5858 5856 5854 5853 5850
5841 5845 5850 5850 5853 5857 5859 5861 5864 5867 5868 5870 5872 5874 5875 5877 5878 5879 5880 5881 5881 5881 5881 5881 5880 5879 5878 5877 5876 5874 5872 5870 5868 5866 5863 5861 5859 5856 5855 5853 5851 5849 5847 5845
5833 5837 5839 5842 5846 5848 5852 5855 5858 5860 5862 5864 5866 5868 5870 5871 5872 5873 5874 5875 5875 5875 5875 5875 5874 5874 5873 5872 5870 5869 5867 5865 5863 5861 5858 5856 5853 5851 5849 5847 5845 5843 5841 5839
5823 5826 5830 5834 5837 5840 5843 5848 5851 5853 5855 5858 5859 5861 5863 5864 5865 5867 5868 5868 5869 5869 5869 5869 5868 5868 5867 5866 5865 5863 5861 5859 5857 5855 5853 5850 5848 5846 5843 5841 5839 5837 5835 5833
5815 5818 5821 5825 5830 5832 5836 5840 5843 5845 5848 5850 5852 5854 5856 5857 5859 5860 5861 5862 5862 5862 5862 5862 5862 5861 5860 5859 5858 5857 5855 5853 5851 5849 5847 5844 5842 5840 5837 5835 5833 5831 5829 5827
5806 5810 5813 5817 5821 5825 5829 5832 5835 5838 5840 5842 5845 5846 5848 5850 5851 5853 5853 5854 5855 5855 5855 5855 5855 5854 5853 5852 5851 5850 5848 5847 5845 5843 5840 5838 5836 5834 5831 5829 5827 5824 5822 5820
5798 5801 5804 5809 5814 5818 5821 5823 5827 5830 5832 5834 5837 5839 5841 5842 5843 5845 5846 5847 5847 5847 5847 5847 5847 5847 5846 5845 5844 5843 5841 5840 5838 5836 5834 5832 5829 5827 5825 5823 5820 5818 5815 5813
5789 5793 5797 5801 5806 5809 5812 5815 5818 5821 5823 5826 5828 5831 5833 5834 5836 5837 5838 5839 5839 5839 5840 5840 5840 5839 5838 5838 5837 5836 5834 5833 5831 5829 5827 5825 5823 5821 5818 5816 5814 5811 5809 5806
5780 5784 5789 5793 5796 5800 5804 5807 5810 5813 5815 5818 5820 5822 5824 5826 5828 5829 5830 5831 5831 5831 5832 5832 5832 5832 5831 5830 5829 5828 5827 5825 5824 5822 5820 5818 5816 5814 5812 5809 5807 5804 5802 5799
5773 5777 5781 5785 5788 5792 5795 5798 5801 5804 5807 5810 5812 5814 5816 5818 5819 5820 5821 5822 5823 5824 5824 5824 5824 5824 5823 5822 5822 5821 5819 5818 5816 5815 5813 5811 5809 5807 5805 5803 5800 5798 5795 5793
5765 5769 5773 5776 5780 5783 5786 5790 5793 5796 5798 5801 5804 5806 5808 5810 5811 5813 5813 5814 5815 5816 5816 5817 5816 5816 5815 5815 5814 5813 5812 5810 5809 5807 5806 5804 5802 5800 5798 5796 5793 5791 5789 5786
5757 5761 5764 5767 5771 5774 5778 5781 5784 5787 5790 5793 5795 5797 5799 5801 5803 5804 5805 5806 5807 5808 5808 5809 5808 5808 5807 5807 5806 5805 5804 5803 5801 5800 5799 5797 5795 5793 5791 5789 5787 5785 5782 5779
5749 5752 5755 5758 5762 5765 5769 5772 5775 5778 5781 5784 5787 5789 5791 5793 5795 5796 5797 5798 5799 5800 5800 5800 5800 5800 5799 5799 5798 5797 5796 5795 5794 5793 5791 5790 5788 5786 5784 5782 5780 5778 5775 5773
5741 5744 5747 5749 5753 5756 5760 5763 5767 5770 5773 5776 5779 5781 5783 5785 5787 5788 5789 5790 5791 5792 5792 5792 5792 5792 5791 5791 5790 5789 5789 5788 5787 5786 5784 5783 5781 5779 5778 5776 5773 5771 5769 5766
5734 5736 5738 5741 5745 5748 5752 5755 5758 5762 5765 5768 5771 5773 5775 5777 5779 5780 5781 5782 5783 5784 5784 5784 5784 5784 5784 5783 5783 5782 5781 5781 5780 5778 5777 5776 5774 5773 5771 5769 5767 5764 5762 5759
5726 5729 5731 5734 5738 5741 5745 5748 5751 5754 5757 5760 5763 5765 5767 5769 5771 5772 5773 5775 5775 5776 5776 5776 5776 5776 5776 5776 5776 5775 5774 5774 5773 5772 5770 5769 5767 5766 5764 5762 5760 5757 5755 5752
5720 5723 5726 5729 5732 5735 5738 5741 5744 5747 5750 5752 5755 5757 5759 5761 5763 5765 5766 5767 5768 5769 5769 5769 5769 5769 5769 5769 5769 5768 5768 5767 5766 5765 5764 5762 5761 5759 5757 5755 5753 5751 5748 5745
5714 5717 5720 5723 5726 5729 5732 5734 5737 5739 5742 5745 5748 5750 5752 5754 5756 5757 5759 5760 5761 5761 5762 5762 5762 5762 5762 5762 5762 5762 5761 5761 5760 5759 5757 5756 5754 5752 5751 5749 5746 5744 5741 5738
5710 5713 5715 5718 5721 5723 5726 5728 5731 5733 5736 5739 5741 5743 5745 5747 5749 5750 5752 5753 5754 5754 5755 5755 5755 5756 5756 5756 5756 5755 5755 5754 5754 5752 5751 5749 5748 5746 5744 5742 5740 5737 5735 5732
5706 5709 5711 5713 5716 5718 5721 5723 5726 5728 5731 5733 5735 5737 5739 5741 5743 5744 5745 5746 5748 5748 5749 5749 5749 5749 5750 5750 5750 5750 5749 5748 5747 5746 5744 5743 5741 5740 5738 5735 5733 5731 5728 5726
5703 5705 5707 5710 5712 5714 5717 5719 5722 5724 5726 5728 5730 5732 5733 5735 5737 5739 5740 5741 5742 5742 5743 5743 5744 5744 5744 5744 5744 5743 5743 5742 5741 5739 5738 5737 5735 5733 5731 5729 5727 5725 5722 5719